Wind_Speed
21 18 16 14 12 11 10 9 8 7 7 6 5 5 4 4 4 4 4 5 5 5 6 5 5 5 4 4 4 4 4 4 4 4 5 6 7 8 9 10 11 12 13
23 20 18 16 14 13 12 11 9 8 8 7 6 6 6 5 5 5 5 5 5 6 5 5 5 4 4 4 4 4 3 4 4 5 5 6 7 8 9 10 11 12 14
25 22 20 18 16 15 13 12 11 10 9 8 8 7 7 6 6 6 6 6 6 6 6 5 5 5 5 4 4 4 3 4 4 5 6 7 8 8 9 10 12 13 14
27 24 22 20 18 17 15 14 13 12 11 10 9 8 8 8 7 7 7 7 6 6 6 6 6 5 5 5 5 4 4 5 5 6 6 7 8 9 10 11 12 14 15
29 26 24 21 20 19 17 16 14 13 12 11 11 10 9 9 9 8 8 7 7 7 7 7 7 6 6 6 6 5 5 6 6 7 7 8 9 10 11 12 13 14 16
31 29 26 24 22 20 19 17 16 15 14 13 12 11 11 10 10 9 9 8 8 8 8 8 8 7 7 7 7 7 7 7 7 8 9 9 10 11 12 13 14 15 16
33 31 28 25 24 22 20 19 17 16 15 14 13 13 12 11 11 10 10 10 9 9 9 9 9 8 8 8 8 8 8 8 9 9 10 11 11 12 13 14 15 16 17
35 33 30 27 25 24 22 20 19 18 16 15 15 14 13 13 12 12 11 11 11 11 10 10 10 10 10 9 9 9 10 10 11 11 12 12 13 14 15 15 17 18 19
37 35 32 29 27 25 23 21 20 19 18 17 16 15 15 14 14 13 13 13 13 12 12 12 12 12 11 11 11 11 12 12 12 13 14 14 15 16 16 17 18 19 20
39 36 33 31 28 26 24 23 21 20 19 18 17 17 16 16 16 15 15 15 15 14 14 14 14 13 13 13 13 13 14 14 15 15 16 16 17 18 18 19 20 21 22
39 37 34 31 29 27 25 24 22 21 20 19 18 18 18 17 17 17 16 16 16 16 16 16 15 15 15 15 15 16 16 16 17 17 18 18 19 20 20 21 22 23 24
38 36 34 32 30 28 26 24 23 22 21 21 20 19 19 18 18 18 18 18 18 18 18 18 18 17 17 18 18 18 18 19 19 19 20 20 21 22 22 23 24 25 26
39 37 35 34 32 29 27 25 24 23 23 22 22 21 20 20 20 19 19 19 19 19 19 20 20 20 20 20 20 20 21 21 21 21 22 22 23 23 24 25 25 27 28
38 36 34 33 32 30 28 27 26 25 24 24 23 23 22 22 21 21 21 21 21 21 21 22 22 22 22 22 22 22 23 23 23 24 24 25 25 25 26 27 27 29 30
36 35 35 34 32 31 29 28 26 26 25 25 24 24 23 23 23 23 23 23 23 23 23 24 24 24 25 25 25 25 25 25 26 26 26 27 27 28 29 29 30 31 32
34 34 34 34 34 33 31 30 29 28 27 26 25 25 25 24 24 24 25 25 25 25 25 26 26 26 26 27 27 27 27 27 28 29 29 29 30 30 31 31 32 33 34
35 35 34 34 34 34 33 32 30 29 28 27 27 27 27 27 26 26 26 26 27 27 27 27 28 28 29 29 29 29 29 30 30 30 31 32 32 32 33 34 34 35 36
36 35 34 36 36 35 35 35 33 32 31 30 29 29 29 29 29 29 29 29 29 29 29 29 30 30 30 31 31 31 31 32 32 33 33 33 34 34 35 36 36 37 38
38 37 36 36 37 37 37 37 36 35 33 32 32 31 31 31 31 31 31 31 30 31 31 31 32 32 32 32 33 33 34 35 35 35 35 36 36 36 37 38 39 40 40
38 39 39 38 38 40 40 40 39 38 36 35 34 34 34 34 33 33 33 33 33 33 33 34 34 34 34 34 35 35 36 37 37 38 38 38 38 39 40 40 41 42 42
40 40 40 39 39 38 40 41 41 40 39 38 36 37 37 36 36 35 35 35 35 35 36 36 36 36 37 38 38 38 38 38 39 39 39 39 40 41 42 43 43 44 43
41 41 41 42 42 40 40 40 41 41 41 40 39 39 39 38 38 38 38 38 38 38 38 38 38 39 40 40 40 40 40 39 40 41 42 42 43 43 44 44 45 45 44
42 42 42 43 43 43 42 40 40 41 42 42 41 41 41 40 39 39 39 40 40 40 40 41 41 41 41 41 41 42 42 42 42 42 42 43 43 44 45 45 45 46 45
44 43 43 43 43 43 43 43 43 42 42 42 43 42 42 42 41 41 41 42 42 43 43 43 42 42 42 42 42 43 44 44 44 43 43 44 44 44 44 45 45 45 44
45 44 44 44 45 45 44 44 44 45 44 44 44 44 44 44 43 43 44 44 44 44 44 43 43 44 44 45 45 45 45 44 45 45 44 44 44 45 45 45 44 44 43
45 45 45 44 45 46 46 46 46 46 45 45 45 45 46 46 46 45 45 46 46 46 46 47 47 47 47 47 47 46 46 46 46 46 46 45 45 45 45 45 44 44 44
Wind_Direction
224 224 225 227 228 228 225 224 220 215 215 217 220 226 229 237 255 275 288 297 304 311 315 319 322 327 334 341 351 0 8 12 12 10 9 6 5 5 4 3 2 1 360
225 224 225 227 227 228 226 225 222 220 220 224 226 228 231 237 249 266 280 289 296 303 306 309 315 322 328 333 339 345 352 356 356 355 354 355 357 357 357 358 358 356 355
225 225 226 226 227 228 227 226 224 222 224 229 230 231 235 241 249 261 273 280 285 293 298 300 305 312 317 321 323 325 331 334 336 338 340 344 347 349 351 352 352 351 351
224 224 225 226 227 227 227 227 226 225 227 231 233 235 239 245 253 260 267 273 278 285 291 293 295 300 304 306 308 309 313 319 322 325 329 333 337 341 344 345 346 346 346
223 224 224 226 226 227 227 228 227 227 228 232 235 238 241 247 252 257 263 267 272 278 284 287 289 292 294 297 299 299 304 311 313 315 319 324 328 333 336 338 339 340 341
223 224 224 225 226 226 227 227 228 228 229 232 235 238 242 246 250 255 260 263 268 273 278 282 285 287 288 290 293 294 299 304 306 309 313 317 321 326 329 331 333 335 336
224 223 224 224 225 226 226 227 228 229 230 233 236 238 242 246 250 255 259 262 265 269 274 279 282 284 285 287 289 290 294 297 300 304 308 311 314 318 322 325 328 330 331
222 222 223 223 224 225 226 227 228 229 230 233 237 240 243 247 251 256 260 262 265 268 271 275 277 280 282 284 285 286 289 292 295 299 303 307 309 312 316 319 322 324 326
220 221 221 221 223 224 225 227 228 230 231 234 238 242 245 248 251 255 260 263 265 267 269 272 274 275 277 280 282 284 287 289 293 296 300 303 306 309 311 314 317 319 321
218 219 220 220 222 223 225 227 228 230 232 235 238 242 245 249 252 255 259 262 265 267 269 270 272 272 274 276 279 282 286 289 292 294 297 300 303 306 308 311 313 315 317
217 216 217 218 221 222 224 226 228 231 233 236 239 243 246 249 252 255 259 261 264 267 269 270 271 272 273 275 278 282 285 288 291 293 296 298 301 303 306 308 310 312 314
217 217 217 218 220 222 223 226 228 232 234 237 240 243 247 250 253 256 259 262 264 266 268 270 271 272 274 275 278 282 284 287 289 292 295 298 299 301 304 306 308 310 312
215 216 218 219 220 222 223 226 228 232 235 238 241 244 247 250 253 256 259 262 264 266 268 270 272 273 275 277 279 281 284 286 288 290 293 296 298 299 301 304 306 308 310
216 216 217 218 221 223 223 226 228 232 235 238 241 244 247 250 253 256 258 260 263 265 267 269 271 274 276 277 279 282 284 286 288 290 292 294 296 298 299 301 303 305 307
220 220 220 219 223 224 225 228 230 233 236 239 242 245 248 250 253 256 259 261 262 265 267 270 272 274 276 278 279 281 283 285 287 289 291 293 295 296 298 300 301 303 305
221 220 220 222 224 226 228 230 232 234 237 240 243 246 249 252 255 257 260 263 265 267 269 272 274 276 277 278 279 280 282 284 287 289 290 292 293 295 297 299 301 302 304
223 222 222 224 226 228 230 231 233 235 238 241 244 247 250 253 256 259 261 264 266 268 270 272 274 276 277 278 279 281 281 283 285 287 289 290 292 293 295 297 299 301 302
225 226 224 226 227 230 232 233 233 235 238 242 245 248 250 254 257 260 262 265 267 269 270 272 274 276 277 279 280 281 282 283 284 286 288 290 291 293 294 296 298 300 301
231 231 231 232 231 232 232 234 235 236 238 242 245 248 251 254 257 259 262 265 267 269 270 272 273 275 276 278 279 280 281 283 284 286 287 288 290 291 293 295 297 298 299
233 233 234 235 234 234 235 236 236 238 240 243 245 247 250 253 256 259 261 264 267 269 270 272 272 273 275 277 279 280 281 283 285 285 286 288 289 291 293 294 295 297 298
236 237 236 237 235 235 236 237 237 239 241 244 245 247 251 254 257 260 263 265 267 268 269 271 272 274 275 276 278 279 281 283 284 284 286 287 289 290 292 293 295 296 297
238 237 237 239 239 240 241 241 242 243 244 245 247 250 252 254 257 260 263 265 267 268 269 271 273 274 276 277 278 278 279 281 283 284 286 287 288 290 291 292 294 295 295
241 241 241 241 240 242 243 242 244 245 247 248 250 251 253 256 257 260 264 266 267 268 269 271 273 275 276 276 278 280 281 282 283 284 285 287 288 290 291 292 293 294 294
244 244 245 245 244 245 247 248 249 250 250 251 252 253 255 257 259 261 264 267 268 270 270 272 274 275 276 277 279 281 282 283 284 283 284 286 287 289 290 291 292 292 293
245 246 248 248 248 248 249 250 251 252 253 253 255 256 257 259 261 263 266 268 270 272 272 273 275 275 276 278 280 281 283 284 284 285 286 286 287 289 290 291 292 291 291
247 247 248 249 249 249 250 251 252 254 255 255 256 257 259 260 263 265 267 268 269 271 272 274 275 276 277 279 280 281 282 283 283 285 286 287 288 289 290 290 290 290 290
Height
5866 5868 5870 5871 5873 5874 5876 5877 5877 5878 5879 5879 5880 5880 5881 5882 5882 5883 5883 5883 5883 5883 5883 5883 5883 5883 5882 5882 5882 5882 5882 5881 5881 5881 5880 5880 5879 5878 5877 5876 5875 5874 5873
5863 5866 5868 5869 5871 5872 5874 5875 5876 5877 5878 5878 5879 5879 5880 5881 5881 5882 5882 5882 5883 5883 5883 5882 5882 5882 5882 5882 5882 5882 5881 5881 5881 5881 5880 5880 5879 5878 5877 5876 5875 5873 5872
5861 5863 5865 5867 5869 5870 5872 5873 5874 5875 5876 5877 5878 5878 5879 5880 5880 5881 5881 5882 5882 5882 5882 5882 5882 5882 5882 5882 5881 5881 5881 5881 5881 5880 5880 5879 5878 5877 5876 5875 5874 5872 5871
5857 5860 5862 5864 5866 5868 5869 5871 5872 5873 5874 5875 5876 5877 5878 5878 5879 5880 5880 5880 5881 5881 5881 5881 5881 5881 5881 5881 5881 5881 5881 5880 5880 5880 5879 5878 5877 5876 5875 5874 5873 5871 5870
5853 5856 5859 5861 5863 5865 5867 5869 5870 5871 5872 5874 5874 5875 5876 5877 5878 5878 5879 5879 5880 5880 5880 5880 5880 5880 5880 5880 5880 5880 5880 5880 5879 5879 5878 5877 5876 5875 5874 5873 5872 5870 5868
5849 5852 5855 5858 5860 5862 5864 5866 5867 5869 5870 5871 5872 5873 5874 5875 5876 5877 5877 5878 5878 5879 5879 5879 5879 5879 5879 5879 5879 5879 5879 5878 5878 5877 5877 5876 5875 5874 5873 5871 5870 5868 5867
5845 5848 5851 5854 5857 5859 5861 5863 5865 5866 5868 5869 5870 5871 5872 5873 5874 5875 5876 5876 5877 5877 5877 5878 5878 5878 5878 5878 5878 5878 5877 5877 5876 5876 5875 5874 5873 5872 5871 5870 5868 5866 5864
5840 5844 5847 5850 5853 5855 5858 5860 5862 5863 5865 5866 5868 5869 5870 5871 5872 5873 5874 5874 5875 5875 5876 5876 5876 5877 5877 5876 5876 5876 5876 5875 5875 5874 5873 5872 5871 5870 5869 5867 5866 5864 5862
5835 5839 5842 5846 5849 5852 5854 5856 5858 5860 5862 5863 5865 5866 5868 5869 5869 5870 5871 5872 5873 5873 5873 5874 5874 5874 5874 5874 5874 5874 5873 5873 5872 5872 5871 5870 5869 5868 5866 5865 5863 5861 5859
5829 5833 5838 5841 5845 5848 5850 5853 5855 5857 5859 5860 5862 5863 5865 5866 5867 5868 5869 5870 5870 5871 5871 5871 5872 5872 5872 5872 5872 5871 5871 5870 5870 5869 5868 5867 5866 5865 5863 5862 5860 5858 5856
5823 5828 5832 5836 5840 5843 5846 5849 5851 5853 5855 5857 5858 5860 5861 5863 5864 5865 5866 5866 5867 5868 5868 5868 5869 5869 5869 5869 5869 5868 5868 5867 5867 5866 5865 5864 5862 5861 5860 5858 5856 5854 5852
5819 5823 5827 5831 5835 5839 5842 5844 5847 5849 5851 5853 5855 5856 5858 5859 5860 5861 5862 5863 5864 5864 5865 5865 5865 5865 5865 5865 5865 5865 5864 5864 5863 5862 5861 5860 5858 5857 5855 5854 5852 5850 5848
5813 5818 5822 5826 5830 5833 5837 5839 5842 5845 5847 5849 5850 5852 5854 5855 5856 5857 5858 5859 5860 5860 5861 5861 5861 5861 5861 5861 5861 5861 5860 5859 5859 5858 5857 5855 5854 5853 5851 5849 5847 5845 5843
5808 5812 5816 5821 5825 5828 5831 5834 5837 5840 5842 5844 5846 5847 5849 5851 5852 5853 5854 5855 5855 5856 5856 5857 5857 5857 5857 5857 5856 5856 5855 5855 5854 5853 5852 5850 5849 5848 5846 5844 5842 5840 5838
5802 5806 5811 5815 5819 5823 5826 5829 5832 5834 5837 5839 5841 5843 5844 5846 5847 5848 5849 5850 5851 5851 5851 5852 5852 5852 5852 5852 5851 5851 5850 5850 5849 5847 5846 5845 5843 5842 5840 5839 5836 5834 5832
5797 5801 5805 5809 5813 5817 5821 5824 5826 5829 5831 5834 5836 5837 5839 5840 5842 5843 5844 5845 5845 5846 5846 5846 5847 5847 5846 5846 5846 5845 5845 5844 5843 5842 5840 5839 5837 5836 5834 5832 5830 5828 5826
5791 5796 5800 5804 5808 5811 5814 5817 5820 5823 5826 5828 5830 5832 5833 5835 5836 5837 5838 5839 5839 5840 5840 5840 5840 5840 5840 5840 5840 5839 5839 5838 5837 5836 5834 5833 5831 5829 5827 5826 5824 5821 5819
5785 5789 5793 5797 5801 5805 5808 5811 5813 5816 5819 5821 5824 5825 5827 5829 5830 5831 5832 5833 5833 5834 5834 5834 5834 5834 5834 5834 5833 5833 5832 5831 5830 5829 5827 5826 5824 5823 5821 5819 5816 5814 5812
5778 5782 5786 5791 5794 5798 5801 5804 5807 5809 5812 5814 5817 5818 5820 5821 5823 5824 5825 5826 5826 5827 5827 5827 5827 5827 5827 5826 5826 5825 5824 5824 5823 5821 5820 5818 5817 5815 5813 5811 5809 5806 5804
5772 5776 5779 5783 5787 5790 5793 5796 5799 5802 5805 5807 5809 5811 5812 5814 5815 5816 5817 5818 5819 5819 5820 5820 5819 5819 5819 5819 5818 5818 5817 5816 5815 5814 5812 5811 5809 5807 5805 5803 5801 5798 5796
5765 5769 5772 5776 5779 5782 5785 5788 5791 5794 5797 5799 5801 5803 5805 5806 5807 5808 5810 5810 5811 5811 5811 5811 5811 5811 5811 5810 5810 5810 5809 5808 5807 5805 5804 5802 5800 5798 5796 5794 5792 5789 5787
5758 5761 5764 5768 5771 5774 5778 5781 5784 5786 5788 5791 5792 5794 5796 5798 5799 5800 5801 5802 5802 5803 5803 5803 5803 5802 5802 5801 5801 5800 5800 5800 5798 5797 5795 5793 5791 5789 5787 5785 5783 5780 5778
5750 5753 5756 5760 5763 5766 5769 5772 5775 5777 5780 5782 5784 5786 5787 5789 5790 5791 5792 5793 5793 5793 5794 5793 5793 5793 5793 5792 5791 5791 5791 5790 5790 5789 5786 5784 5782 5780 5778 5775 5773 5771 5768
5742 5745 5748 5752 5755 5758 5760 5763 5766 5769 5771 5774 5775 5777 5779 5779 5780 5782 5783 5783 5784 5784 5784 5784 5784 5784 5783 5782 5781 5780 5780 5779 5779 5779 5778 5775 5773 5771 5768 5766 5763 5761 5758
5734 5736 5740 5743 5746 5749 5751 5754 5757 5760 5762 5764 5766 5768 5769 5770 5771 5772 5773 5774 5774 5774 5774 5774 5774 5774 5773 5772 5772 5771 5770 5768 5767 5767 5767 5766 5763 5761 5758 5756 5753 5751 5748
5725 5727 5730 5733 5737 5739 5742 5744 5747 5749 5752 5754 5755 5757 5759 5760 5761 5762 5763 5763 5764 5764 5764 5764 5764 5763 5763 5762 5761 5760 5759 5758 5757 5756 5755 5755 5753 5751 5748 5746 5743 5740 5738